COSMOS 2251 DEB, 34302

Orbit data source: Space-Track

COSMOS 2251 DEB, 34302 is space debris in LEO originally from a launch on Wed, 16 Jun 1993 UTC launched from the Plesetsk Missile And Space Complex (PKMTR). The debris from Iridium 33, an American commercial communications satellite, has been tracked extensively since its accidental collision with the defunct Russian satellite Cosmos 2251 in 2009. This event, occurring at high speed in low Earth orbit (LEO), generated thousands of pieces of space debris, significantly increasing the risk of further collisions. The Iridium 33 debris cloud has impacted space traffic management and orbital debris mitigation strategies, making it a subject of ongoing study in space situational awareness.

Loading next visibility...
Identifier
34302, 1993-036MY
Orbit
LEO
Country
Flag of CISCIS
Related business
Manufacturer
Unknown
Mission
Spacecraft
Bus & Motor
Unknown
Mass
Unknown
Launch date (UTC)
1993-06-16 (33 years ago)
Launch vehicle
Unknown
Launch site
Plesetsk Missile And Space Complex (PKMTR)
Object type
Payload
Rocket body
Debris
Shape & HBR
Unknown shape, 0.1 m
Radar Cross Section
Medium (>0.1 m² and <1 m²)

Expand to show TLE details & history
Last TLE update: 5 days ago

TLE from 5 days ago
0 COSMOS 2251 DEB
1 34302U 93036MY  26155.12156954  .00002601  00000-0  80214-3 0  9992
2 34302  74.1767 166.0670 0077979 330.8368  92.6371 14.40156756902167
Epoch: 2026-06-04T02:55Z
TLE epoch observation values (Epoch: 2026-06-04T02:55:03.608Z)
Latitude
60.26464°
Longitude
-100.69646°
Altitude
770.889 km
Speed
7.473 km/s
True Right ascension
13h 02m 33s
True Declination
60° 06' 60"
Sunlit
Object was in daylight at epoch
Visualization orbit readout
Latitude
Unknown
Longitude
Unknown
Altitude
Unknown
Speed
Unknown
Apparent Right ascension
Unknown
Apparent Declination
Unknown
Sunlit
N/A
Visualization observer readout
Local Sidereal Time
19:49:44
Azimuth
Unknown
Elevation
Unknown
Doppler factor
Unknown
Orbital elements
Apogee altitude
811.216 km
Perigee altitude
699.96 km
Semi-major axis
7,133.725 km
Eccentricity
0.0078
Inclination
74.1767°
RAAN
166.067°
Arg. of periapsis
330.8368°
True anomaly
93.52929°
Mean anomaly
92.6371°
Eccentric anomaly
93.08324°
Mean motion
3.60221 °/min
Orbital period
99.94 mins
BSTAR
0.00080214
Loading maneuver chart data...
Computing Atmospheric mass density...

Documentation

Showing up to 5 results
|